Tracking 23885 objects as of 27-Nov-2021
HD Live streaming from Space Station
objects crossing your sky now

PEGASUS DEB

Track PEGASUS DEB now!
10-day predictions


NORAD ID: 25442
Int'l Code: 1994-029ADX
Perigee: 576.1 km
Apogee: 977.7 km
Inclination: 81.8 °
Period: 100.2 minutes
Semi major axis: 7147 km
RCS: 0.0116 m2 (small)
Launch date: May 19, 1994
Source: United States (US)
Launch site: AIR FORCE WESTERN TEST RANGE (AFWTR)

Note: This is SATELLITE DEBRIS
aabbcc
Your satellite tracking list
Your tracking list is empty




NASA's NSSDC Master Catalog

Two Line Element Set (TLE):
1 25442U 94029ADX 21330.74333264  .00000803  00000-0  16994-3 0  9995
2 25442  81.7656 143.7308 0280889 313.9951  43.8381 14.36601716311821
Source of the keplerian elements: AFSPC